| time (UTC) | temp F | wind direction | speed MPH | gust MPH | rain 1hr in | rain 24hr in | rain mn in | humidity % | barometer mb |
| 20260503192703 | 73 | 80 | 3.0 | 9.0 | 0.00 | 0.00 | 0.00 | 18 | 1017.9 |
| 20260503191803 | 74 | 62 | 3.0 | 10.0 | 0.00 | 0.00 | 0.00 | 18 | 1017.9 |
| 20260503190903 | 75 | 56 | 3.0 | 11.0 | 0.00 | 0.00 | 0.00 | 17 | 1017.9 |
| 20260503190003 | 76 | 21 | 3.0 | 8.0 | 0.00 | 0.00 | 0.00 | 16 | 1017.9 |
| 20260503185403 | 76 | 13 | 4.0 | 10.0 | 0.00 | 0.00 | 0.00 | 16 | 1017.9 |
| 20260503184524 | 76 | 6 | 4.0 | 10.0 | 0.00 | 0.00 | 0.00 | 17 | 1017.9 |
| 20260503183624 | 75 | 8 | 4.0 | 10.0 | 0.00 | 0.00 | 0.00 | 16 | 1017.9 |
| 20260503182703 | 74 | 1 | 3.0 | 9.0 | 0.00 | 0.00 | 0.00 | 16 | 1017.9 |
| 20260503181803 | 73 | 44 | 4.0 | 9.0 | 0.00 | 0.00 | 0.00 | 17 | 1017.9 |
| 20260503180903 | 73 | 33 | 4.0 | 11.0 | 0.00 | 0.00 | 0.00 | 17 | 1017.9 |
| 20260503180003 | 73 | 52 | 4.0 | 8.0 | 0.00 | 0.00 | 0.00 | 17 | 1017.9 |
| 20260503175403 | 73 | 19 | 2.0 | 6.0 | 0.00 | 0.00 | 0.00 | 17 | 1017.9 |
| 20260503174524 | 73 | 3 | 3.0 | 9.0 | 0.00 | 0.00 | 0.00 | 18 | 1017.9 |
| 20260503173624 | 72 | 11 | 3.0 | 9.0 | 0.00 | 0.00 | 0.00 | 19 | 1017.9 |
| 20260503172703 | 72 | 53 | 4.0 | 9.0 | 0.00 | 0.00 | 0.00 | 20 | 1017.9 |
| 20260503171824 | 71 | 64 | 2.0 | 6.0 | 0.00 | 0.00 | 0.00 | 21 | 1017.9 |
| 20260503170903 | 71 | 70 | 3.0 | 8.0 | 0.00 | 0.00 | 0.00 | 21 | 1017.9 |
| 20260503150903 | 59 | 65 | 2.0 | 6.0 | 0.00 | 0.00 | 0.00 | 32 | 1017.9 |
| 20260503130903 | 49 | 244 | 0.0 | 1.0 | 0.00 | 0.00 | 0.00 | 40 | 1017.9 |
| 20260503080903 | 50 | 0 | 0.0 | 0.0 | 0.00 | 0.00 | 0.00 | 39 | 1017.9 |
| 20260503072703 | 52 | 0 | 0.0 | 0.0 | 0.00 | 0.00 | 0.00 | 38 | 1017.9 |
| 20260503071803 | 53 | 0 | 0.0 | 0.0 | 0.00 | 0.00 | 0.00 | 37 | 1017.9 |
| 20260503070903 | 53 | 0 | 0.0 | 0.0 | 0.00 | 0.00 | 0.00 | 36 | 1017.9 |
| 20260503054503 | 62 | 258 | 3.0 | 9.0 | 0.00 | 0.00 | 0.00 | 19 | 1017.9 |
| 20260503053603 | 62 | 239 | 3.0 | 8.0 | 0.00 | 0.00 | 0.00 | 19 | 1017.9 |
| 20260503052703 | 62 | 245 | 4.0 | 10.0 | 0.00 | 0.00 | 0.00 | 19 | 1017.9 |
| 20260503051803 | 62 | 242 | 4.0 | 8.0 | 0.00 | 0.00 | 0.00 | 19 | 1017.9 |
| 20260503050903 | 62 | 247 | 4.0 | 10.0 | 0.00 | 0.00 | 0.00 | 20 | 1017.9 |
| 20260503050003 | 62 | 249 | 3.0 | 8.0 | 0.00 | 0.00 | 0.00 | 20 | 1017.9 |
| 20260503045403 | 62 | 246 | 3.0 | 8.0 | 0.00 | 0.00 | 0.00 | 20 | 1017.9 |
| 20260503044503 | 63 | 243 | 2.0 | 8.0 | 0.00 | 0.00 | 0.00 | 21 | 1017.9 |
| 20260503043603 | 63 | 245 | 3.0 | 7.0 | 0.00 | 0.00 | 0.00 | 21 | 1017.9 |
| 20260503042703 | 63 | 246 | 3.0 | 7.0 | 0.00 | 0.00 | 0.00 | 20 | 1017.9 |
| 20260503041803 | 63 | 246 | 2.0 | 5.0 | 0.00 | 0.00 | 0.00 | 20 | 1017.9 |
| 20260503040903 | 63 | 248 | 3.0 | 7.0 | 0.00 | 0.00 | 0.00 | 20 | 1017.9 |
| 20260503040003 | 64 | 250 | 3.0 | 8.0 | 0.00 | 0.00 | 0.00 | 19 | 1017.9 |
| 20260503035403 | 64 | 251 | 3.0 | 7.0 | 0.00 | 0.00 | 0.00 | 19 | 1017.9 |
| 20260503034503 | 64 | 252 | 2.0 | 5.0 | 0.00 | 0.00 | 0.00 | 18 | 1017.9 |
| 20260503033624 | 65 | 269 | 3.0 | 8.0 | 0.00 | 0.00 | 0.00 | 18 | 1017.9 |
| 20260503032703 | 65 | 291 | 2.0 | 7.0 | 0.00 | 0.00 | 0.00 | 17 | 1017.9 |
| 20260503031803 | 65 | 293 | 3.0 | 8.0 | 0.00 | 0.00 | 0.00 | 17 | 1017.9 |
| 20260503030924 | 66 | 294 | 2.0 | 5.0 | 0.00 | 0.00 | 0.00 | 17 | 1017.9 |
| 20260503030003 | 66 | 296 | 1.0 | 4.0 | 0.00 | 0.00 | 0.00 | 18 | 1017.9 |
| 20260503025403 | 66 | 297 | 1.0 | 5.0 | 0.00 | 0.00 | 0.00 | 18 | 1017.9 |
| 20260503024503 | 65 | 297 | 0.0 | 3.0 | 0.00 | 0.00 | 0.00 | 18 | 1017.9 |
| 20260503023603 | 65 | 0 | 0.0 | 0.0 | 0.00 | 0.00 | 0.00 | 19 | 1017.9 |
| 20260503022703 | 66 | 0 | 0.0 | 0.0 | 0.00 | 0.00 | 0.00 | 19 | 1017.9 |
| 20260503021803 | 67 | 0 | 0.0 | 0.0 | 0.00 | 0.00 | 0.00 | 18 | 1017.9 |
| 20260503020924 | 68 | 0 | 0.0 | 0.0 | 0.00 | 0.00 | 0.00 | 17 | 1017.9 |
| 20260503020003 | 69 | 297 | 0.0 | 4.0 | 0.00 | 0.00 | 0.00 | 17 | 1017.9 |
| 20260503015403 | 69 | 298 | 1.0 | 4.0 | 0.00 | 0.00 | 0.00 | 17 | 1017.9 |
| 20260503014503 | 70 | 0 | 0.0 | 0.0 | 0.00 | 0.00 | 0.00 | 17 | 1017.9 |
| 20260503013624 | 70 | 283 | 0.0 | 4.0 | 0.00 | 0.00 | 0.00 | 17 | 1017.9 |
| 20260503012703 | 71 | 304 | 1.0 | 7.0 | 0.00 | 0.00 | 0.00 | 16 | 1017.9 |
| 20260503011803 | 72 | 322 | 2.0 | 7.0 | 0.00 | 0.00 | 0.00 | 16 | 1017.9 |
| 20260503010903 | 72 | 360 | 1.0 | 6.0 | 0.00 | 0.00 | 0.00 | 15 | 1017.9 |
| 20260503010003 | 73 | 337 | 2.0 | 10.0 | 0.00 | 0.00 | 0.00 | 15 | 1017.9 |
| 20260503005403 | 73 | 286 | 1.0 | 10.0 | 0.00 | 0.00 | 0.00 | 15 | 1017.9 |
| 20260503004503 | 73 | 302 | 1.0 | 9.0 | 0.00 | 0.00 | 0.00 | 15 | 1017.9 |
| 20260503003603 | 75 | 339 | 1.0 | 7.0 | 0.00 | 0.00 | 0.00 | 14 | 1017.9 |
| 20260503002703 | 76 | 350 | 2.0 | 8.0 | 0.00 | 0.00 | 0.00 | 14 | 1017.9 |
| 20260503001803 | 75 | 309 | 2.0 | 8.0 | 0.00 | 0.00 | 0.00 | 14 | 1017.9 |
| 20260503000903 | 76 | 356 | 3.0 | 11.0 | 0.00 | 0.00 | 0.00 | 14 | 1017.9 |
| 20260503000003 | 76 | 360 | 2.0 | 12.0 | 0.00 | 0.00 | 0.00 | 14 | 1017.9 |
| 20260502235403 | 76 | 1 | 3.0 | 12.0 | 0.00 | 0.00 | 0.00 | 15 | 1017.9 |
| 20260502234503 | 75 | 326 | 3.0 | 12.0 | 0.00 | 0.00 | 0.00 | 15 | 1017.9 |
| 20260502233624 | 76 | 337 | 3.0 | 12.0 | 0.00 | 0.00 | 0.00 | 14 | 1017.9 |
| 20260502232703 | 76 | 310 | 3.0 | 12.0 | 0.00 | 0.00 | 0.00 | 13 | 1017.9 |
| 20260502231803 | 76 | 353 | 2.0 | 11.0 | 0.00 | 0.00 | 0.00 | 13 | 1017.9 |
| 20260502230903 | 76 | 22 | 1.0 | 11.0 | 0.00 | 0.00 | 0.00 | 14 | 1017.9 |
| 20260502230024 | 76 | 359 | 3.0 | 13.0 | 0.00 | 0.00 | 0.00 | 14 | 1017.9 |
| 20260502225403 | 76 | 12 | 5.0 | 13.0 | 0.00 | 0.00 | 0.00 | 14 | 1017.9 |
| 20260502224503 | 76 | 12 | 5.0 | 12.0 | 0.00 | 0.00 | 0.00 | 14 | 1017.9 |
| 20260502223603 | 75 | 14 | 4.0 | 11.0 | 0.00 | 0.00 | 0.00 | 15 | 1017.9 |
| 20260502222703 | 75 | 11 | 4.0 | 12.0 | 0.00 | 0.00 | 0.00 | 15 | 1017.9 |
| 20260502221803 | 74 | 22 | 4.0 | 10.0 | 0.00 | 0.00 | 0.00 | 15 | 1017.9 |
| 20260502220903 | 75 | 19 | 2.0 | 9.0 | 0.00 | 0.00 | 0.00 | 14 | 1017.9 |
| 20260502220024 | 74 | 18 | 3.0 | 13.0 | 0.00 | 0.00 | 0.00 | 15 | 1017.9 |
| 20260502215403 | 75 | 16 | 4.0 | 13.0 | 0.00 | 0.00 | 0.00 | 14 | 1017.9 |
| 20260502214524 | 75 | 16 | 5.0 | 12.0 | 0.00 | 0.00 | 0.00 | 14 | 1017.9 |
| 20260502213603 | 75 | 20 | 4.0 | 12.0 | 0.00 | 0.00 | 0.00 | 14 | 1017.9 |
| 20260502212703 | 75 | 36 | 6.0 | 19.0 | 0.00 | 0.00 | 0.00 | 15 | 1017.9 |
| 20260502211803 | 76 | 9 | 5.0 | 12.0 | 0.00 | 0.00 | 0.00 | 15 | 1017.9 |
| 20260502210903 | 75 | 21 | 4.0 | 12.0 | 0.00 | 0.00 | 0.00 | 16 | 1017.9 |
| 20260502210003 | 74 | 54 | 5.0 | 12.0 | 0.00 | 0.00 | 0.00 | 16 | 1017.9 |
| 20260502205424 | 74 | 55 | 5.0 | 10.0 | 0.00 | 0.00 | 0.00 | 16 | 1017.9 |
| 20260502204503 | 75 | 19 | 2.0 | 9.0 | 0.00 | 0.00 | 0.00 | 16 | 1017.9 |
| 20260502203603 | 73 | 43 | 4.0 | 10.0 | 0.00 | 0.00 | 0.00 | 18 | 1017.9 |
| 20260502202724 | 73 | 44 | 5.0 | 10.0 | 0.00 | 0.00 | 0.00 | 19 | 1017.9 |
| 20260502201803 | 72 | 25 | 4.0 | 12.0 | 0.00 | 0.00 | 0.00 | 20 | 1017.9 |
| 20260502200903 | 72 | 44 | 3.0 | 8.0 | 0.00 | 0.00 | 0.00 | 19 | 1017.9 |
| 20260502200003 | 72 | 43 | 4.0 | 10.0 | 0.00 | 0.00 | 0.00 | 19 | 1017.9 |
| 20260502195403 | 71 | 46 | 4.0 | 11.0 | 0.00 | 0.00 | 0.00 | 19 | 1017.9 |
| 20260502194503 | 72 | 20 | 4.0 | 11.0 | 0.00 | 0.00 | 0.00 | 20 | 1017.9 |
| 20260502193624 | 71 | 24 | 3.0 | 11.0 | 0.00 | 0.00 | 0.00 | 20 | 1017.9 |